weather.gov     
National Weather Service

Regional Weather Roundup
NWS Homepage
This page is being discontinued on March 12, 2014.
The same data is available at this site. Please update your bookmarks.
Thank you, and we apologize for the inconvenience.
Please send an email to SR-SRH.Webmaster@noaa.gov with any concerns.


Current Version
Previous Version:    01  02  03  04  05  06  07  08  09  10  11  12  13  14  15  16  17  18  19  20  21  22  23  24  25  26  27  28  29  30  
   31  32  33  34  35  36  37  38  39  40  41  42  43  44  45  46  47  48  49  50  51  52  53  54  55  
[Printable]
779
ASUS45 KABQ 201610
RWRNM
WEATHER ROUNDUP FOR NEW MEXICO
NATIONAL WEATHER SERVICE ALBUQUERQUE NM
1000 AM MDT SAT SEP 20 2014

NOTE: "FAIR" MEANS FEW OR NO CLOUDS BELOW 12,000 FEET AGL WITH NO
       SIGNIFICANT WEATHER OR OBSTRUCTIONS TO VISION.

      THIS PRODUCT IS RELEASED AS TWO VERSIONS.  ONE VERSION NEAR
      THE TOP OF THE HOUR CONTAINING PRELIMINARY DATA FROM ALBUQUERQUE
      AND OTHER STATIONS.  A FINAL VERSION WITH ADDITIONAL DATA IS
      ISSUED ABOUT 10 MINUTES AFTER THE HOUR.

NMZ501-503-504-510>518-201700-
NORTHWEST PLATEAU/NORTHCENTRAL MOUNTAINS

CITY           SKY/WX    TMP DP  RH WIND       PRES   REMARKS
FARMINGTON     SUNNY     69  47  45 E5        30.18R
LOS ALAMOS     SUNNY     66  54  64 NE6       30.30S
SANTA FE       SUNNY     70  53  54 N13       30.24S
TAOS           SUNNY     66  46  48 N10       30.32S
ANGEL FIRE     FAIR      56  48  73 CALM      30.40F

$$
NMZ402-403-502-505>509-201700-
WESTCENTRAL MOUNTAINS/SOUTHWEST MOUNTAINS

CITY           SKY/WX    TMP DP  RH WIND       PRES   REMARKS
GALLUP         SUNNY     68  42  38 CALM      30.25R
GRANTS         SUNNY     66  43  42 N5        30.26S
SILVER CITY    SUNNY     73  63  68 CALM      30.19R

$$
NMZ407-409-411-412-201700-
SOUTHERN DESERTS

CITY           SKY/WX    TMP DP  RH WIND       PRES   REMARKS
LORDSBURG        N/A     73  64  73 MISG      30.10S
DEMING         SUNNY     74  64  71 SW5       30.10R
LAS CRUCES     MOSUNNY   75  64  67 SW3       30.12R
HOLLOMAN AFB   MOSUNNY   75  65  70 CALM      30.08R
ALAMOGORDO     MOSUNNY   73  64  73 SW3       30.11R
T OR C         SUNNY     73  61  65 N6        30.13R

$$
NMZ519>523-201700-
CENTRAL VALLEYS/CENTRAL HIGHLANDS

CITY           SKY/WX    TMP DP  RH WIND       PRES   REMARKS
ALBUQUERQUE    SUNNY     71  57  61 N9        30.19R
DOUBLE EAGLE   SUNNY     70  57  64 NE8       30.22
MORIARTY ARPT  CLOUDY    60  58  91 NW3       30.26R
CLINES CORNERS SUNNY     64  57  78 NW8       30.26S
BELEN          FAIR      72  59  64 NE6       30.18R
SOCORRO        FAIR      71  63  73 NE6       30.15R

$$
NMZ524>526-539-540-201700-
SOUTHCENTRAL MOUNTAINS

CITY           SKY/WX    TMP DP  RH WIND       PRES   REMARKS
RUIDOSO        SUNNY     66  59  77 CALM      30.27R

$$
NMZ527>531-201700-
NORTHEAST HIGHLANDS/NORTHEAST PLAINS

CITY           SKY/WX    TMP DP  RH WIND       PRES   REMARKS
LAS VEGAS      SUNNY     72  45  37 N12       30.27R
RATON          SUNNY     73  48  41 E9        30.24R
CLAYTON        SUNNY     78  53  41 N13       30.14R

$$
NMZ532>537-201700-
EASTCENTRAL PLAINS

CITY           SKY/WX    TMP DP  RH WIND       PRES   REMARKS
TUCUMCARI      SUNNY     75  61  61 NW7       30.09S
CANNON AFB     CLOUDY    66  66 100 E8        30.14R
CLOVIS AIRPORT   N/A     66  61  82 NE7       30.16R

$$
NMZ028-029-538-201700-
SOUTHEAST PLAINS

CITY           SKY/WX    TMP DP  RH WIND       PRES   REMARKS
ROSWELL        CLOUDY    70  65  84 N6        30.10R
CARLSBAD       PTSUNNY   76  74  93 N7        30.06R
HOBBS          LGT RAIN  68  68 100 N10       30.09R FOG


$$




U.S. Dept. of Commerce
NOAA National Weather Service
1325 East West Highway
Silver Spring, MD 20910
E-mail: w-nws.webmaster@noaa.gov
Page last modified: May 16, 2007
NATIONAL WEATHER SERVICE: for Safety, for Work, for Fun - FOR LIFE